Wind_Speed
20 20 20 20 19 19 19 19 19 20 22 23 24 25 27 27 27 25 24 23 23 22 21 20 20 19 18 17 16 16 16 15 14 14 13 12 12 12 11 11 10 10 10
20 20 20 20 19 18 17 16 17 18 20 22 24 24 26 27 27 27 26 24 24 23 22 21 21 21 20 19 18 18 17 17 16 15 15 13 13 13 13 12 11 11 10
21 20 20 19 18 17 15 14 15 15 17 20 22 24 26 27 26 27 27 26 25 25 23 22 22 21 21 20 19 19 18 18 17 17 16 15 14 14 14 13 12 12 11
21 21 21 19 17 15 13 12 12 13 14 17 20 23 24 26 27 27 27 26 26 26 24 24 24 23 22 21 20 20 19 19 18 18 17 17 16 16 15 14 14 13 12
21 21 20 18 16 14 12 10 9 10 12 14 17 20 23 25 26 27 27 26 26 26 26 26 25 24 23 23 22 21 20 19 20 19 18 18 18 17 17 16 15 15 14
20 21 19 18 16 14 12 9 8 8 10 11 14 18 21 24 25 27 28 27 27 27 27 27 26 26 25 24 23 22 21 21 21 20 19 19 19 19 18 17 17 16 15
20 20 19 18 16 13 12 9 7 6 8 10 12 15 19 22 24 26 28 28 27 27 27 27 27 26 26 25 23 23 22 22 22 21 20 20 20 20 19 19 18 17 17
20 19 19 18 16 14 11 9 6 5 6 8 11 14 16 19 22 24 27 27 27 26 27 27 27 27 26 25 25 24 23 23 23 22 22 21 21 21 21 20 20 19 18
19 19 19 18 16 14 12 9 6 4 4 6 9 12 15 17 20 22 25 26 26 26 27 26 26 26 26 27 26 25 25 24 24 24 23 23 23 23 22 22 21 21 20
19 19 18 18 16 14 12 11 8 4 3 4 7 10 13 16 18 20 23 25 25 25 26 26 25 26 26 25 25 25 25 25 25 25 25 24 24 24 24 23 23 22 22
19 18 18 17 16 14 13 11 9 6 3 2 5 8 11 13 15 18 21 23 24 25 25 26 26 25 25 24 25 26 26 25 26 26 25 25 25 25 25 24 24 23 23
18 18 17 17 16 14 12 11 9 8 5 1 2 5 9 11 14 16 18 20 22 23 24 25 27 26 25 26 25 25 27 26 27 27 26 26 26 25 25 25 25 25 25
18 17 17 16 15 14 13 11 10 8 6 3 1 4 7 10 13 15 17 19 20 22 22 24 26 26 26 26 27 26 26 27 28 28 28 28 28 27 27 26 26 27 27
17 17 16 15 14 14 13 11 11 9 7 4 2 1 4 7 11 14 16 17 19 20 21 21 23 25 25 26 26 26 27 27 28 28 28 28 29 29 29 29 29 29 29
16 15 15 15 14 14 12 11 10 10 8 5 3 1 2 5 8 11 15 16 17 19 19 20 21 23 24 25 26 27 27 28 28 29 29 29 30 30 30 31 31 31 30
15 14 14 15 14 13 12 11 10 10 8 6 4 2 2 4 6 9 13 14 15 18 19 19 20 22 23 24 26 27 27 28 29 29 30 30 31 31 32 32 33 33 32
14 14 14 14 14 13 12 11 10 9 8 7 5 4 3 4 6 7 10 12 14 16 18 19 19 20 21 22 24 26 27 28 29 30 31 31 31 32 33 33 33 34 34
13 13 13 13 13 13 13 12 10 9 8 7 6 5 4 3 5 7 9 11 12 14 16 17 18 19 20 21 23 25 26 27 28 30 30 31 32 33 34 35 34 35 35
12 12 12 12 12 12 12 12 11 10 8 7 6 5 4 4 5 6 8 10 12 13 15 16 18 19 20 21 23 25 26 27 28 28 29 30 32 33 34 35 35 36 36
12 12 11 11 11 11 11 11 11 10 9 9 7 6 5 4 5 6 7 9 11 12 14 16 17 18 19 21 22 23 25 26 28 29 29 30 32 33 34 35 36 36 37
11 11 11 11 11 11 10 10 10 10 10 9 9 7 6 6 5 6 7 8 9 11 13 15 17 18 19 20 21 23 24 26 27 29 30 32 32 33 34 34 35 36 37
12 11 11 11 11 11 11 10 10 10 10 10 9 8 7 7 6 6 7 7 9 10 12 14 16 17 18 20 21 22 23 25 26 28 29 30 31 32 33 34 35 35 36
13 12 12 12 12 11 11 11 10 10 10 10 10 9 8 7 7 7 7 7 8 10 11 13 15 16 18 19 20 21 22 23 24 25 27 28 29 30 32 34 34 35 35
15 14 14 13 12 12 12 11 11 10 10 10 10 9 9 8 8 9 9 9 9 10 11 12 14 15 17 18 19 20 21 23 24 24 25 26 27 28 30 32 33 35 36
17 16 15 15 14 13 12 12 12 11 11 11 10 10 9 9 9 9 10 10 11 11 12 13 14 15 16 17 19 20 21 23 24 24 25 26 26 27 28 30 32 33 35
20 19 17 16 15 14 14 13 12 12 12 12 11 11 10 10 10 10 10 11 11 12 13 13 14 15 16 17 18 19 20 22 23 24 25 26 27 27 28 30 31 31 33
Wind_Direction
332 328 323 316 309 302 292 282 271 258 249 243 240 236 229 225 223 222 222 221 219 216 216 217 216 213 210 208 206 204 201 199 196 194 191 188 184 180 176 173 169 166 167
335 331 328 322 315 307 298 287 273 259 249 240 236 233 227 223 222 221 219 219 216 214 215 215 215 215 212 210 208 207 205 204 203 201 200 197 194 190 186 183 180 177 176
340 338 335 329 321 313 303 290 276 260 248 238 233 228 222 219 218 217 217 217 215 213 214 215 215 214 212 211 211 209 208 208 207 206 206 204 201 198 196 194 192 190 188
343 342 340 335 330 323 313 297 279 261 247 237 231 226 222 217 215 216 215 216 214 212 214 215 215 214 213 212 212 213 212 212 211 209 209 209 208 206 204 202 201 200 199
346 346 345 342 338 333 323 307 282 260 246 237 230 224 221 217 216 214 212 214 213 213 215 215 215 214 214 213 214 215 215 215 215 213 213 213 211 211 210 209 209 208 207
348 349 348 347 345 340 333 319 291 263 245 236 227 222 219 216 215 212 211 211 212 213 213 213 214 215 215 214 215 216 217 217 216 215 216 215 215 215 215 214 214 213 213
350 351 351 350 350 347 341 333 309 272 248 236 227 222 217 214 214 211 210 210 211 210 209 211 213 214 215 215 217 217 218 218 217 218 218 219 218 219 219 218 218 219 220
350 350 351 352 350 349 348 344 327 290 257 237 227 219 215 214 214 211 210 209 209 209 208 210 212 214 215 217 218 219 218 219 219 221 220 221 221 222 223 223 224 224 224
352 351 352 353 353 353 351 350 343 317 269 240 221 214 214 215 211 210 211 211 210 209 208 209 212 214 216 217 219 222 222 221 222 223 223 225 224 224 225 227 228 229 229
355 354 354 355 355 356 357 359 356 343 292 238 220 215 212 212 210 208 210 212 212 210 210 212 213 214 216 218 221 221 220 222 224 224 225 226 226 226 227 229 230 231 231
357 356 356 357 358 359 2 5 7 3 349 249 218 211 210 212 211 211 211 212 212 213 214 215 217 217 217 220 222 223 223 225 224 224 225 227 228 230 230 230 232 232 233
357 357 358 359 0 2 3 4 7 11 11 346 219 206 208 212 214 214 212 211 212 215 216 216 218 220 223 223 224 226 226 226 226 226 227 229 229 232 231 232 234 235 236
358 359 359 0 2 3 5 6 7 7 6 5 266 207 208 212 214 213 212 212 214 215 218 220 222 223 224 224 225 228 228 228 228 229 230 232 232 233 234 235 236 237 237
358 1 1 1 3 3 4 5 4 6 6 4 349 209 206 211 213 214 215 215 218 218 220 221 221 225 226 227 228 230 231 231 231 232 233 234 234 236 237 238 238 239 239
357 0 2 2 4 4 2 2 3 5 2 359 354 314 222 212 212 213 216 217 218 218 220 222 223 226 227 229 231 232 232 233 234 235 236 236 237 238 239 240 241 241 241
355 357 1 3 4 4 4 2 3 3 2 359 352 330 262 230 218 218 219 220 220 219 221 225 227 230 232 232 231 231 232 234 236 237 238 239 239 239 240 241 242 243 243
352 355 357 0 3 4 3 2 1 1 1 0 357 348 306 256 233 223 223 227 228 224 224 227 230 233 236 236 235 236 236 237 238 239 239 239 240 241 241 242 243 244 244
347 350 352 355 358 1 3 2 0 360 359 357 354 345 323 286 251 235 231 231 231 230 229 231 232 235 237 239 238 240 241 241 242 242 242 243 244 243 242 242 243 245 246
340 342 346 350 354 358 0 1 360 358 356 353 349 340 323 295 262 246 240 238 236 235 234 234 235 236 239 241 241 242 243 243 244 245 245 246 246 246 245 245 245 246 247
330 334 337 343 348 351 354 355 354 353 350 346 341 334 322 299 276 258 249 245 242 240 239 239 238 238 240 242 245 248 247 246 247 246 247 248 249 249 248 248 248 249 250
317 324 327 331 336 340 343 346 347 346 343 339 335 328 318 303 288 273 262 255 250 246 244 243 243 244 246 248 250 252 252 252 252 251 250 251 252 251 250 251 251 251 252
303 310 315 317 322 327 331 334 337 339 338 335 331 325 315 304 293 286 277 266 260 255 251 250 250 250 252 255 255 256 256 256 256 254 254 253 253 252 251 251 252 253 253
290 297 303 308 312 316 320 323 325 329 332 331 329 326 319 309 297 292 286 279 271 263 259 257 255 255 256 258 258 259 259 258 258 257 256 256 255 254 254 254 253 254 254
280 285 291 297 301 306 309 313 316 317 321 325 324 321 317 311 304 296 291 286 278 273 268 264 262 260 259 260 260 260 260 260 260 259 258 258 258 257 256 256 257 258 258
273 277 282 287 292 297 301 303 306 307 310 316 319 317 315 310 307 300 293 288 283 277 273 271 269 268 266 265 265 264 263 262 263 263 261 260 259 259 260 261 261 261 260
267 271 275 279 283 287 291 295 298 299 300 303 307 308 307 305 304 302 297 291 287 282 279 277 275 273 272 270 270 270 270 267 266 265 264 262 260 260 262 263 264 264 264
Height
5823 5819 5816 5812 5809 5806 5804 5803 5803 5803 5804 5806 5809 5812 5815 5819 5823 5827 5831 5834 5838 5842 5845 5848 5852 5855 5858 5860 5863 5865 5868 5870 5873 5875 5877 5879 5881 5883 5884 5886 5888 5889 5891
5820 5816 5812 5808 5805 5802 5800 5798 5797 5798 5799 5801 5803 5806 5810 5814 5818 5822 5826 5830 5834 5838 5841 5845 5848 5852 5855 5858 5861 5864 5866 5869 5871 5874 5876 5878 5880 5882 5884 5886 5888 5889 5891
5817 5813 5809 5804 5801 5798 5795 5794 5793 5793 5794 5796 5798 5801 5805 5809 5813 5818 5822 5826 5830 5834 5838 5842 5845 5849 5852 5855 5858 5861 5864 5867 5869 5872 5874 5876 5879 5881 5883 5885 5887 5889 5890
5814 5810 5806 5801 5797 5794 5792 5790 5789 5789 5790 5792 5794 5797 5800 5804 5808 5813 5817 5821 5826 5830 5834 5838 5842 5846 5849 5852 5856 5859 5861 5864 5867 5869 5872 5874 5877 5879 5881 5884 5886 5887 5889
5812 5808 5803 5799 5795 5792 5789 5787 5787 5786 5787 5788 5790 5792 5796 5800 5804 5808 5813 5817 5822 5826 5830 5834 5838 5842 5846 5849 5852 5856 5859 5861 5864 5867 5869 5872 5875 5877 5879 5882 5884 5886 5888
5810 5806 5802 5797 5793 5790 5787 5785 5784 5784 5784 5785 5787 5789 5792 5796 5800 5804 5808 5813 5818 5822 5826 5830 5834 5839 5842 5846 5849 5852 5856 5859 5861 5864 5867 5869 5872 5875 5877 5879 5882 5884 5886
5809 5805 5800 5796 5792 5789 5786 5784 5782 5782 5782 5783 5784 5786 5789 5792 5796 5800 5804 5809 5814 5818 5822 5826 5831 5835 5839 5842 5846 5849 5852 5855 5859 5861 5864 5866 5869 5872 5874 5877 5879 5881 5883
5808 5804 5799 5795 5792 5788 5785 5783 5781 5780 5780 5780 5782 5784 5786 5790 5792 5796 5800 5805 5809 5814 5818 5822 5827 5831 5835 5839 5842 5846 5849 5852 5855 5858 5861 5863 5866 5869 5871 5874 5876 5878 5880
5807 5803 5799 5795 5791 5787 5784 5782 5780 5779 5778 5779 5780 5782 5784 5787 5790 5793 5797 5801 5806 5810 5814 5818 5823 5826 5830 5835 5838 5842 5845 5848 5852 5855 5857 5860 5862 5865 5868 5870 5873 5875 5877
5806 5802 5798 5794 5791 5787 5784 5782 5780 5778 5778 5778 5779 5780 5782 5784 5787 5791 5794 5798 5802 5806 5811 5815 5819 5822 5826 5830 5834 5838 5841 5844 5847 5850 5853 5856 5858 5861 5863 5866 5869 5871 5873
5805 5802 5798 5794 5791 5787 5784 5782 5780 5778 5777 5777 5778 5779 5780 5783 5785 5788 5792 5796 5799 5803 5807 5812 5815 5819 5822 5826 5830 5833 5837 5840 5843 5846 5849 5852 5854 5856 5859 5862 5864 5867 5869
5805 5801 5798 5794 5791 5788 5785 5783 5780 5779 5777 5777 5777 5778 5779 5781 5784 5786 5789 5792 5796 5800 5804 5808 5812 5815 5818 5822 5825 5829 5832 5835 5838 5842 5845 5847 5850 5852 5854 5857 5860 5862 5864
5805 5801 5798 5794 5791 5788 5785 5783 5781 5779 5778 5777 5777 5777 5778 5780 5782 5784 5787 5790 5793 5797 5800 5804 5807 5811 5814 5817 5821 5824 5827 5830 5833 5837 5840 5842 5845 5848 5850 5852 5854 5857 5859
5805 5801 5798 5794 5791 5788 5786 5783 5781 5780 5778 5777 5777 5777 5777 5778 5780 5782 5785 5788 5791 5794 5797 5800 5803 5806 5809 5813 5816 5819 5822 5825 5828 5831 5834 5837 5840 5842 5844 5847 5849 5851 5853
5805 5801 5798 5795 5792 5789 5786 5784 5782 5780 5778 5777 5776 5776 5776 5777 5778 5780 5782 5785 5788 5791 5794 5796 5799 5802 5805 5808 5811 5814 5816 5819 5822 5825 5828 5830 5833 5836 5838 5841 5843 5845 5847
5804 5801 5798 5795 5792 5789 5786 5784 5782 5780 5778 5777 5776 5776 5776 5776 5777 5778 5780 5782 5785 5787 5790 5793 5795 5797 5800 5803 5805 5808 5810 5813 5816 5818 5821 5824 5826 5829 5831 5834 5836 5838 5840
5804 5801 5798 5795 5792 5789 5787 5784 5782 5780 5778 5777 5776 5775 5775 5775 5775 5776 5778 5779 5781 5784 5786 5789 5791 5793 5795 5797 5799 5802 5804 5807 5809 5812 5814 5817 5819 5821 5824 5826 5829 5831 5833
5803 5800 5797 5795 5792 5789 5786 5784 5782 5780 5778 5777 5776 5775 5774 5774 5774 5775 5776 5777 5778 5780 5782 5785 5787 5788 5790 5792 5794 5796 5798 5800 5802 5805 5807 5809 5812 5814 5816 5818 5821 5823 5825
5801 5799 5796 5794 5791 5789 5786 5784 5782 5780 5778 5777 5775 5774 5773 5772 5772 5773 5773 5774 5775 5777 5779 5780 5782 5784 5786 5787 5789 5790 5792 5794 5795 5797 5799 5801 5803 5805 5808 5810 5812 5814 5816
5800 5797 5795 5793 5791 5788 5786 5784 5781 5779 5777 5776 5774 5773 5772 5771 5770 5770 5771 5771 5772 5773 5774 5776 5778 5779 5781 5782 5783 5784 5785 5787 5788 5790 5791 5793 5795 5797 5799 5801 5803 5805 5807
5797 5795 5793 5791 5789 5787 5785 5783 5781 5778 5776 5774 5773 5771 5770 5769 5768 5768 5768 5768 5769 5769 5770 5772 5773 5775 5776 5777 5777 5778 5779 5780 5781 5782 5784 5785 5787 5788 5790 5792 5794 5795 5797
5794 5793 5791 5789 5787 5785 5783 5781 5779 5777 5775 5773 5771 5769 5768 5767 5766 5766 5765 5765 5765 5766 5767 5767 5769 5770 5770 5771 5771 5772 5772 5773 5774 5775 5776 5777 5778 5779 5781 5783 5784 5785 5787
5791 5789 5788 5786 5784 5783 5781 5779 5777 5775 5773 5771 5769 5767 5766 5765 5764 5764 5763 5763 5762 5762 5763 5764 5764 5765 5765 5766 5766 5766 5766 5766 5767 5767 5768 5769 5770 5771 5772 5773 5774 5775 5777
5786 5785 5784 5782 5781 5779 5778 5776 5774 5773 5771 5769 5767 5766 5764 5763 5762 5761 5761 5760 5760 5759 5759 5760 5760 5760 5760 5760 5760 5760 5760 5760 5760 5760 5761 5761 5762 5763 5763 5764 5765 5766 5767
5781 5780 5779 5778 5777 5776 5774 5773 5771 5770 5768 5767 5765 5764 5762 5761 5760 5759 5758 5757 5757 5756 5756 5756 5755 5755 5755 5755 5754 5754 5754 5754 5754 5753 5754 5754 5754 5755 5755 5756 5756 5756 5757
5775 5775 5774 5773 5772 5771 5770 5769 5768 5766 5765 5764 5763 5761 5760 5758 5757 5756 5755 5754 5753 5752 5752 5751 5751 5750 5749 5749 5748 5748 5747 5747 5746 5746 5746 5747 5747 5747 5748 5747 5747 5747 5747